THORAD AGENA D DEB

Satellite information

Favourite Embed

Satellite Type and Status

DEBRISIN ORBIT

Key statistics

Satellite THORAD AGENA D DEB at a glance.

Uptime

20343

Days in orbit

Revolutions

≈ 13.6

Per day

Orbit

SSO

Sun Synchronous Orbit

Inclination

100.1

Latest

Satellite identification and parameters

Extended collection of information and parameters for THORAD AGENA D DEB.

Object identification

Identified? True

Debris? True

Object name: THORAD AGENA D DEB

International designator: 1970-025HN

Object number (NORAD): 4992

Object ID (CCSDS): 4992

Country: UNITED STATES OF AMERICA (US)

Current information (Y/N): Y

RCS size: SMALL

Orbital parameters

Period: 105.799 minutes

Inclination: 100.123 deg

SMA: 7409.951 km

Apoapsis: 1043.546 km

Periapsis: 1020.087 km

RAAN: 191.6928 deg

Eccentricy: 0.00158298

Argument of periapsis: 87.7555 deg

Mean anomaly: 298.7515 deg

Mean motion: 13.61067677 rev/day

Mean motion (dot): 0.00000176 rev/day2

B* drag term: 0.0002945479 1/REarth

Two-line elements (TLE)

Creation date: Dec. 17, 2025, 7:48 p.m.

Reference frame: TEME

Reference center: EARTH

Epoch: Dec. 17, 2025, 12:57 p.m. UTC

TLE line 0: 0 THORAD AGENA D DEB

TLE line 1: 1 04992U 70025HN 25351.54014426 .00000176 00000-0 29455-3 0 9992

TLE line 2: 2 04992 100.1230 191.6928 0015830 87.7555 298.7515 13.61067677758486

Live tracking on map

Real-time ground track for satellite THORAD AGENA D DEB.

In-orbit conjunctions

A list of the most updated potential collisions computed for object THORAD AGENA D DEB.

Target Orbit TCA Probability of collision Miss distance Type
THORAD AGENA D DEB SSO 2024-10-15 00:07:24 0.0001645561 181.0 (m) DEBRIS
NIMBUS 2 DEB SSO 2024-08-19 17:55:52 0.0001634397 183.0 (m) DEBRIS

Associated space launch

Meteorological research and development satellite

THORAD AGENA D DEB was lifted into orbit during the mission ‘Thorad SLV-2G Agena D | Nimbus 4’, on board a Thorad SLV-2G Agena D space rocket.

The launch took place on April 8, 1970, 8:17 a.m. from Space Launch Complex 2E.

For more information about the launch, click the button.

Launch to space Thorad SLV-2G Agena D | Nimbus 4
Thorad SLV-2G Agena D | Nimbus 4

Agency: N/A

Status: Launch Successful

Launch date: April 8, 1970, 8:17 a.m. UTC

Rocket: Thorad SLV-2G Agena D

Launch pad: Space Launch Complex 2E

Location: Vandenberg SFB, CA, USA

...

Latest news about this satellite

There are no fresh news available about this satellite. Check back as we update our databases every day.


Newsletter sign-up

Weekly statistics, charts and insights to help you stay on top of the space industry.